Flag Weather past 2 weeks in Launceston, Tasmania, Australia

Now
66 °F

Sunny.


Feels Like: 66 °F
Forecast: 39 / 73 °F
Wind: 14 mph from Southwest

Location: Launceston Airport

Current Time: Nov 26, 2014 at 4:53:45 PM

Latest Report: Nov 26, 2014 at 4:00 PM


Visibility: N/A

Pressure: 29.98 "Hg

Humidity: 28%

Dew point: 32 °F

Location of LauncestonLocation

Historic Weather in Launceston — Graph

°F

Launceston temperature yesterday

Maximum temperature yesterday: 66 °F (at 12:58 PM)
Minimum temperature yesterday: 41 °F (at 12:30 AM)
Average temperature yesterday: 54 °F

Past Weeks' High & Low Weather Summary

 TemperatureHumidityPressure
High72 °F (Nov 15, 4:30 PM)100% (Nov 13, 4:02 AM)30.12 "Hg (Nov 13, 4:02 AM)
Low37 °F (Nov 15, 5:00 AM)21% (Nov 14, 5:30 PM)29.53 "Hg (Nov 16, 3:30 PM)
Average57 °F65%29.81 "Hg
* Reported Nov 11 4:00 PM — Nov 26 4:00 PM, Launceston, Weather by CustomWeather, © 2014

Note: Actual official high and low records may vary slightly from our data, if they occured in-between our weather recording intervals... More about our weather records

Advertising

Launceston weather history for previous 24 hours

 ConditionsComfort  
Time TempWeatherWind HumidityBarometerVisibility
4:00 PM
Nov 26
66 °FSunny.14 mph28%29.98 "HgN/A
3:00 PM68 °FScattered clouds.15 mph28%29.98 "HgN/A
2:30 PM68 °FScattered clouds.15 mph30%29.98 "HgN/A
2:00 PM66 °FPartly sunny.12 mph30%29.98 "HgN/A
1:00 PM66 °FSunny.12 mph30%29.98 "HgN/A
12:30 PM66 °FPartly sunny.12 mph37%29.98 "HgN/A
12:00 PM63 °FPartly sunny.9 mph37%29.98 "HgN/A
11:30 AM63 °FScattered clouds.9 mph34%29.95 "HgN/A
11:00 AM61 °FPartly sunny.10 mph39%29.95 "HgN/A
10:30 AM61 °FSunny.9 mph34%29.95 "HgN/A
10:00 AM61 °FScattered clouds.12 mph36%29.95 "HgN/A
9:30 AM61 °FScattered clouds.14 mph39%29.95 "HgN/A
9:00 AM61 °FMore clouds than sun.15 mph45%29.95 "HgN/A
8:30 AM61 °FBroken clouds.15 mph52%29.92 "HgN/A
8:00 AM57 °FScattered clouds.16 mph67%29.92 "HgN/A
7:30 AM55 °FScattered clouds.14 mph77%29.92 "HgN/A
7:00 AM52 °FScattered clouds.13 mph88%29.89 "HgN/A
6:30 AM52 °FScattered clouds.14 mph82%29.89 "HgN/A
6:00 AM52 °FPartly sunny.16 mph82%29.89 "HgN/A
5:30 AM52 °FOvercast.17 mph82%29.89 "HgN/A
5:00 AM50 °FPassing clouds.16 mph88%29.86 "HgN/A
4:30 AM50 °FPassing clouds.17 mph88%29.86 "HgN/A
4:00 AM50 °FPassing clouds.17 mph82%29.86 "HgN/A
3:30 AM50 °FPassing clouds.16 mph82%29.86 "HgN/A
3:00 AM50 °FPassing clouds.17 mph82%29.89 "HgN/A
2:30 AM50 °FPassing clouds.16 mph76%29.89 "HgN/A
2:00 AM48 °FPassing clouds.14 mph82%29.89 "HgN/A
1:30 AM48 °FPassing clouds.14 mph76%29.92 "HgN/A
1:00 AM46 °FPassing clouds.14 mph82%29.92 "HgN/A
12:30 AM48 °FPassing clouds.15 mph76%29.92 "HgN/A
12:00 AM48 °FPassing clouds.16 mph71%29.92 "HgN/A
11:30 PM
Nov 25
46 °FPassing clouds.12 mph76%29.95 "HgN/A
11:00 PM48 °FPassing clouds.13 mph71%29.95 "HgN/A
10:30 PM48 °FClear.13 mph71%29.95 "HgN/A
10:00 PM48 °FClear.13 mph66%29.95 "HgN/A
9:00 PM52 °FPassing clouds.13 mph62%29.92 "HgN/A
8:30 PM55 °FClear.14 mph51%29.92 "HgN/A
8:00 PM55 °FSunny.17 mph51%29.92 "HgN/A
7:00 PM59 °FScattered clouds.18 mph45%29.89 "HgN/A
6:00 PM63 °FSunny.17 mph39%29.86 "HgN/A
5:30 PM63 °FScattered clouds.22 mph37%29.83 "HgN/A
5:00 PM63 °FMostly cloudy.22 mph39%29.83 "HgN/A
4:04 PM66 °FBroken clouds.22 mph35%29.83 "HgN/A
Weather by CustomWeather, © 2014

See weather overviewHow to use our weather pages